Weather History for KCEU - August, 2013

Change the Weather History Date:

Saturday, August 17, 2013

  Actual Average Record
Temperature  
Mean Temperature 67 °F -  
Max Temperature 70 °F 89 °F 103 °F (1954)
Min Temperature 64 °F 67 °F 58 °F (1979)
Cooling Degree Days 2    
Growing Degree Days 17 (Base 50)    
Moisture  
Dew Point 60 °F    
Average Humidity 78    
Maximum Humidity 88    
Minimum Humidity 64    
Precipitation  
Precipitation 0.37 in - - ()
Sea Level Pressure  
Sea Level Pressure 30.16 in    
Wind  
Wind Speed 7 mph (ENE)    
Max Wind Speed 12 mph    
Max Gust Speed 17 mph    
Visibility 9 miles    
Events Rain    
Averages and records for this station are not official NWS values.
T = Trace of Precipitation, MM = Missing Value Source: NWS Daily Summary

Daily Weather History Graph

Daily Weather History Graph

Search for Another Location

Airport or City:

Trip Planner

Search our weather history database for the weather conditions in past years. The results will help you decide how hot, cold, wet, or windy it might be!

Date:

Astronomy

Aug. 17, 2013 Rise Set
Actual Time 6:53 AM EDT 8:16 PM EDT
Civil Twilight 6:27 AM EDT 8:43 PM EDT
Nautical Twilight 5:55 AM EDT 9:14 PM EDT
Astronomical Twilight 5:22 AM EDT 9:47 PM EDT
Moon 5:27 PM EDT (8/17) 3:00 AM EDT (8/17)
Length of Visible Light 14h 16m
Length of Day
13h 23m
Waxing Gibbous, 84% of the Moon is Illuminated
Aug 17
Waxing Gibbous
Aug 20
Full
Aug 28
Last Quarter
Sep 5
New
Sep 12
First Quarter

Hourly Weather History & Observations

Time (EDT) Temp. Dew Point Humidity Pressure Visibility Wind Dir Wind Speed Gust Speed Precip Events Conditions
12:54 AM 66.9 °F 57.9 °F 73% 30.16 in 10.0 mi East 5.8 mph - N/A   Overcast
1:54 AM 66.0 °F 57.9 °F 75% 30.16 in 10.0 mi Variable 5.8 mph - N/A   Overcast
2:42 AM 64.4 °F 59.0 °F 83% 30.17 in 8.0 mi East 5.8 mph - 0.01 in Rain Light Rain
2:54 AM 64.0 °F 59.0 °F 84% 30.15 in 9.0 mi ENE 6.9 mph - 0.01 in   Overcast
3:04 AM 64.4 °F 57.2 °F 77% 30.17 in 9.0 mi ENE 6.9 mph - 0.00 in Rain Light Rain
3:54 AM 64.9 °F 59.0 °F 81% 30.13 in 10.0 mi NE 5.8 mph - 0.00 in   Overcast
4:54 AM 66.0 °F 60.1 °F 81% 30.12 in 10.0 mi NE 6.9 mph - 0.00 in   Overcast
5:54 AM 66.0 °F 59.0 °F 78% 30.13 in 10.0 mi ENE 6.9 mph - N/A   Overcast
6:54 AM 66.0 °F 59.0 °F 78% 30.13 in 10.0 mi ENE 8.1 mph - N/A   Overcast
7:54 AM 66.9 °F 57.9 °F 73% 30.14 in 10.0 mi ENE 9.2 mph - N/A   Overcast
8:54 AM 66.9 °F 57.0 °F 70% 30.15 in 10.0 mi ENE 8.1 mph - N/A   Overcast
9:54 AM 68.0 °F 57.9 °F 70% 30.17 in 10.0 mi ENE 8.1 mph - N/A   Overcast
10:11 AM 68.0 °F 57.2 °F 68% 30.19 in 10.0 mi NE 8.1 mph - N/A   Overcast
10:49 AM 69.8 °F 57.2 °F 64% 30.20 in 10.0 mi NE 11.5 mph - N/A   Overcast
10:54 AM 69.1 °F 57.0 °F 65% 30.18 in 10.0 mi ENE 11.5 mph - N/A   Overcast
11:23 AM 69.8 °F 57.2 °F 64% 30.21 in 10.0 mi ENE 9.2 mph - N/A   Overcast
11:54 AM 70.0 °F 57.9 °F 65% 30.18 in 10.0 mi ENE 10.4 mph 17.3 mph N/A   Overcast
12:01 PM 69.8 °F 59.0 °F 68% 30.20 in 10.0 mi ENE 6.9 mph 17.3 mph N/A   Overcast
12:22 PM 69.8 °F 59.0 °F 68% 30.19 in 10.0 mi ENE 10.4 mph - N/A   Overcast
12:54 PM 69.1 °F 57.9 °F 68% 30.17 in 10.0 mi ENE 6.9 mph - N/A   Overcast
1:54 PM 69.1 °F 60.1 °F 73% 30.16 in 10.0 mi ENE 4.6 mph - N/A   Overcast
2:54 PM 69.1 °F 61.0 °F 75% 30.14 in 10.0 mi ENE 8.1 mph - 0.00 in Rain Light Rain
3:54 PM 68.0 °F 62.1 °F 81% 30.14 in 10.0 mi NE 5.8 mph - 0.01 in Rain Light Rain
4:54 PM 68.0 °F 63.0 °F 84% 30.13 in 8.0 mi NE 4.6 mph - 0.04 in Rain Light Rain
5:08 PM 68.0 °F 62.6 °F 83% 30.15 in 7.0 mi ENE 4.6 mph - 0.01 in Rain Light Rain
5:34 PM 68.0 °F 62.6 °F 83% 30.15 in 5.0 mi East 3.5 mph - 0.04 in Rain Light Rain
5:54 PM 68.0 °F 63.0 °F 84% 30.13 in 5.0 mi ENE 5.8 mph - 0.06 in Rain Light Rain
6:07 PM 68.0 °F 62.6 °F 83% 30.15 in 5.0 mi East 3.5 mph - 0.01 in Rain Light Rain
6:54 PM 68.0 °F 63.0 °F 84% 30.13 in 7.0 mi ENE 4.6 mph - 0.02 in Rain Light Rain
7:54 PM 66.9 °F 63.0 °F 87% 30.14 in 10.0 mi East 4.6 mph - 0.01 in Rain Light Rain
8:54 PM 66.9 °F 63.0 °F 87% 30.15 in 10.0 mi ENE 4.6 mph - 0.00 in   Overcast
9:20 PM 66.2 °F 62.6 °F 88% 30.17 in 10.0 mi East 4.6 mph - 0.01 in Rain Light Rain
9:30 PM 66.2 °F 62.6 °F 88% 30.18 in 9.0 mi East 4.6 mph - 0.01 in Rain Light Rain
9:54 PM 66.9 °F 63.0 °F 87% 30.17 in 8.0 mi Calm Calm - 0.02 in Rain Light Rain
10:54 PM 66.9 °F 63.0 °F 87% 30.19 in 9.0 mi ENE 4.6 mph - 0.00 in   Overcast
11:15 PM 66.2 °F 62.6 °F 88% 30.20 in 1.8 mi East 5.8 mph - 0.11 in Rain Heavy Rain
11:27 PM 66.2 °F 62.6 °F 88% 30.19 in 3.0 mi East 4.6 mph - 0.18 in Rain Rain
11:54 PM 66.9 °F 63.0 °F 87% 30.17 in 5.0 mi East 3.5 mph - 0.20 in Rain Light Rain